TimePDT,TemperatureF,Dew PointF,Humidity,Sea Level PressureIn,VisibilityMPH,Wind Direction,Wind SpeedMPH,Gust SpeedMPH,PrecipitationIn,Events,Conditions,WindDirDegrees,DateUTC
12:52 AM,45.0,32.0,60,30.04,-9999.0,Calm,Calm,-,N/A,,Unknown,0,2013-03-14 07:52:00
1:52 AM,48.9,30.0,48,30.03,-9999.0,NE,4.6,-,N/A,,Unknown,50,2013-03-14 08:52:00
2:52 AM,46.0,30.9,56,30.03,-9999.0,NNE,3.5,-,N/A,,Unknown,30,2013-03-14 09:52:00
3:52 AM,45.0,30.9,58,30.02,-9999.0,NNE,3.5,-,N/A,,Unknown,30,2013-03-14 10:52:00
4:52 AM,44.1,30.9,60,30.02,-9999.0,ENE,8.1,-,N/A,,Unknown,60,2013-03-14 11:52:00
5:52 AM,46.9,30.0,52,30.03,-9999.0,ENE,3.5,-,N/A,,Unknown,70,2013-03-14 12:52:00
6:52 AM,46.0,30.9,56,30.04,-9999.0,Calm,Calm,-,N/A,,Unknown,0,2013-03-14 13:52:00
7:52 AM,55.0,33.1,43,30.06,-9999.0,East,5.8,-,N/A,,Unknown,80,2013-03-14 14:52:00
8:52 AM,72.0,36.0,27,30.04,-9999.0,ENE,12.7,-,N/A,,Unknown,70,2013-03-14 15:52:00
9:52 AM,77.0,28.9,17,30.04,-9999.0,ENE,17.3,-,N/A,,Unknown,70,2013-03-14 16:52:00
10:52 AM,79.0,28.0,15,30.04,-9999.0,ENE,19.6,24.2,N/A,,Unknown,70,2013-03-14 17:52:00
11:52 AM,81.0,28.9,15,30.03,-9999.0,ENE,16.1,21.9,N/A,,Unknown,60,2013-03-14 18:52:00
12:52 PM,82.0,28.9,14,30.02,-9999.0,NE,16.1,23.0,N/A,,Unknown,50,2013-03-14 19:52:00
1:52 PM,82.9,28.9,14,30.00,-9999.0,NE,11.5,18.4,N/A,,Unknown,50,2013-03-14 20:52:00
2:52 PM,82.9,27.0,13,29.99,-9999.0,NNE,12.7,18.4,N/A,,Unknown,30,2013-03-14 21:52:00
3:52 PM,82.9,27.0,13,29.97,-9999.0,ENE,13.8,18.4,N/A,,Unknown,60,2013-03-14 22:52:00
4:52 PM,82.9,27.0,13,29.97,-9999.0,ENE,10.4,-,N/A,,Unknown,60,2013-03-14 23:52:00
5:52 PM,75.9,46.9,36,29.98,-9999.0,South,6.9,-,N/A,,Unknown,190,2013-03-15 00:52:00
6:52 PM,70.0,45.0,41,30.00,-9999.0,SSW,5.8,-,N/A,,Unknown,200,2013-03-15 01:52:00
7:52 PM,62.1,44.1,52,30.01,-9999.0,Calm,Calm,-,N/A,,Unknown,0,2013-03-15 02:52:00
8:52 PM,55.0,42.1,62,30.01,-9999.0,NE,5.8,-,N/A,,Unknown,50,2013-03-15 03:52:00
9:52 PM,53.1,39.9,61,30.02,-9999.0,NE,6.9,-,N/A,,Unknown,50,2013-03-15 04:52:00
10:52 PM,51.1,39.0,63,30.02,-9999.0,NE,6.9,-,N/A,,Unknown,50,2013-03-15 05:52:00
11:52 PM,46.9,37.0,68,30.02,-9999.0,ENE,5.8,-,N/A,,Unknown,60,2013-03-15 06:52:00